User: anonymous   Login
Location: Unspecified
(0.0000°N, 0.0000°E)
Time: 18:46:13
(UTC+00:00)
Language:

Envisat - Orbit

View from above orbital plane
View from above orbital plane
View from above satellite
View from above satellite

Ground track
Ground track

The orbit data is extracted from the following two-line orbital elements,

1 27386U 02009A   17234.42372324 -.00000018  00000-0  78090-5 0  9990
2 27386  98.2255 276.9168 0001295  83.3648 276.7688 14.37900848810598
Epoch (UTC): 22 August 2017 10:10:09
Eccentricity: 0.0001295
inclination: 98.2255°
perigee height: 764 km
apogee height: 766 km
right ascension of ascending node: 276.9168°
argument of perigee: 83.3648°
revolutions per day: 14.37900848
mean anomaly at epoch: 276.7688°
orbit number at epoch: 81059

The dashed part of the orbit path shows where the satellite is in the earth's shadow,  

DLR